Tracking 35274 objects as of 11-Sep-2026
HD Live streaming from Space Station
objects crossing your sky now

USA 74-77 DEB

Track USA 74-77 DEB now!
10-day predictions


NORAD ID: 25591
Int'l Code: 1991-076L
Launch date: November 8, 1991
Source: United States (US)
Launch site: AIR FORCE WESTERN TEST RANGE (AFWTR)

Note: This is SATELLITE DEBRIS
Your satellite tracking list
Your tracking list is empty




NASA's NSSDC Master Catalog

Two Line Element Set (TLE):
1 25591U 91076L   98365.52288517  .10587174  76253-5  12451-2 0  9990
2 25591 064.8500 050.5323 0187071 047.9989 313.7957 16.00963826    12
Source of the keplerian elements: AFSPC